Theta_e
285 285 285 285 285 285 285 285 285 285 285 285 284 284 284 284 284 284 284 284 284 284 284 284 284 285 285 285 285 286 286 286 286 286 286 286 286 286 287 287 287 287 287 287 287 288 288 288 288 288 288 288 289 289 289 290 290 290 290 291 291 291 291 291 292 292 292 292 292 292 293 292 292 292 292 292 292 293 293 293 293 293 294 294 294 294
284 285 285 285 285 285 285 284 284 284 284 284 284 284 284 284 284 284 284 284 284 284 284 284 285 285 285 285 286 286 286 286 286 286 286 286 286 286 286 287 287 287 287 287 287 287 287 288 288 288 288 288 289 289 289 289 290 290 290 290 290 291 291 291 291 291 291 291 291 291 291 291 291 291 291 291 291 292 292 292 292 293 293 293 293 294
284 284 284 284 284 284 284 284 284 284 284 284 284 284 284 284 284 284 284 284 284 284 284 285 285 285 285 286 285 285 285 285 285 285 285 285 286 286 286 286 286 286 286 287 287 287 287 287 288 288 288 288 289 289 289 289 290 290 290 290 290 290 290 290 290 290 290 290 290 290 290 290 291 291 291 291 291 291 291 291 292 292 292 292 293 293
284 284 284 284 284 284 284 284 284 284 284 284 284 284 284 284 284 284 284 284 284 285 285 285 285 285 286 285 285 284 284 284 284 285 285 285 285 286 286 286 286 286 286 286 287 287 287 287 287 288 288 288 289 289 289 289 289 289 289 289 289 289 289 289 289 290 290 290 290 290 290 290 290 290 290 290 290 291 291 291 291 291 292 292 292 292
284 284 284 284 284 284 284 284 284 284 284 284 284 284 284 284 284 284 284 285 285 285 285 285 285 285 285 285 284 284 284 284 284 285 285 285 285 285 285 285 285 286 286 286 286 287 287 287 287 288 288 288 288 289 289 289 289 289 288 288 288 289 289 289 289 289 289 289 289 289 289 289 289 290 290 290 290 290 290 291 291 291 291 292 292 292
285 284 285 284 284 284 284 284 284 284 284 284 284 284 284 284 284 285 285 285 285 285 285 285 285 285 284 284 283 283 283 284 284 284 284 284 284 284 285 285 285 285 286 286 286 287 287 287 287 288 288 288 288 288 288 288 288 288 288 288 288 288 288 288 288 288 288 289 289 289 289 289 289 289 289 290 290 290 290 290 290 291 291 291 291 291
285 285 285 285 285 284 284 284 284 284 284 284 284 284 285 285 285 285 285 285 285 285 285 285 284 284 283 283 283 283 283 283 283 283 283 283 284 284 284 285 285 285 286 286 286 286 287 287 287 287 288 288 288 288 288 287 287 287 287 288 288 288 288 288 288 288 288 288 288 288 288 289 289 289 289 289 289 290 290 290 290 290 290 291 291 291
285 285 285 285 285 285 285 284 284 285 285 285 285 285 285 285 285 285 285 285 285 285 284 284 283 283 283 283 283 283 283 283 283 283 283 283 283 283 284 284 285 285 285 286 286 286 287 287 287 287 287 287 287 287 287 287 287 287 287 287 287 287 287 287 288 288 288 288 288 288 288 288 288 289 289 289 289 289 290 290 290 290 291 291 291 292
285 285 285 285 285 285 285 285 285 285 285 285 285 285 285 285 285 285 285 285 284 284 284 283 283 283 283 283 283 283 283 283 283 283 283 283 283 283 284 284 285 285 285 286 286 286 286 287 287 287 286 286 286 286 286 286 286 287 287 287 287 287 287 287 287 287 287 287 287 288 288 288 288 289 289 289 289 289 290 290 290 291 291 291 291 292
285 285 285 285 285 285 285 285 285 285 286 286 286 285 285 285 285 285 284 284 284 283 283 283 283 283 283 283 283 283 283 283 283 283 283 283 284 284 284 284 285 285 285 285 286 286 286 286 286 286 286 286 286 286 286 286 286 286 286 286 286 286 286 287 287 287 287 287 287 288 288 288 288 289 289 289 289 289 290 290 290 291 291 291 291 292
285 285 285 285 285 285 285 285 285 286 286 286 285 285 285 284 284 284 283 283 283 283 283 283 283 283 283 282 282 282 282 282 282 283 283 283 283 284 284 284 284 285 285 285 285 285 285 285 285 285 285 285 285 285 285 285 285 285 286 286 286 286 286 286 286 287 287 287 288 288 288 288 289 289 289 289 289 290 290 290 290 290 291 291 291 291
285 285 285 285 285 285 286 286 286 286 285 285 284 284 284 283 283 283 283 283 283 283 283 283 283 282 282 282 282 282 282 282 283 283 283 283 283 284 284 284 284 284 284 284 284 284 284 284 284 284 284 284 284 284 285 285 285 285 285 285 285 285 286 286 286 287 287 287 288 288 288 288 289 289 289 289 289 290 290 290 290 290 291 291 291 291
285 285 285 285 285 286 286 286 285 285 284 283 283 283 283 283 283 283 283 283 283 283 282 282 282 282 282 282 282 282 283 283 283 283 283 284 284 284 284 284 284 284 284 283 283 283 283 283 283 283 283 284 284 284 284 284 284 284 285 285 285 285 286 286 287 287 287 287 288 288 288 288 289 289 289 289 289 290 290 290 290 290 290 290 290 291
285 285 285 286 286 286 286 285 284 284 283 283 283 283 283 283 282 282 282 282 282 282 282 282 282 282 282 282 283 283 283 283 283 284 284 284 284 284 284 284 284 283 283 283 283 283 282 283 283 283 283 283 283 283 283 283 284 284 284 285 285 286 286 286 287 287 287 287 288 288 288 288 289 289 289 289 289 289 289 289 289 290 290 290 290 290
285 286 286 286 286 285 285 284 283 283 283 282 282 282 282 282 282 282 282 282 282 282 282 282 282 282 283 283 283 283 284 284 284 284 284 284 284 284 284 283 283 283 282 282 282 282 282 282 282 282 282 282 282 283 283 283 284 284 285 285 285 286 286 286 286 287 287 287 287 288 288 288 288 288 289 289 289 289 289 289 289 289 289 289 289 290
286 286 286 286 285 284 283 283 283 282 282 282 282 282 282 282 282 282 282 282 282 282 282 282 282 283 283 283 284 284 284 284 284 284 284 284 284 283 283 283 282 282 282 282 282 282 282 282 282 282 282 282 282 283 283 284 284 284 285 285 285 286 286 286 286 287 287 287 287 288 288 288 288 288 288 288 289 289 289 289 289 289 289 289 289 289
286 286 285 284 284 283 283 283 282 282 282 282 282 282 282 282 282 282 282 282 282 282 282 283 283 283 284 284 284 284 284 284 284 284 284 283 283 283 282 282 282 282 282 282 282 282 282 282 282 282 282 282 282 283 283 284 284 284 285 285 285 285 286 286 286 287 287 287 287 287 288 288 288 288 288 288 288 288 288 288 288 289 289 289 289 289
285 284 284 283 283 283 282 282 282 282 282 281 281 281 282 282 282 282 282 282 282 282 283 283 283 284 284 284 284 284 284 284 283 283 283 283 282 282 282 282 282 282 282 282 282 282 282 282 282 282 282 282 283 283 283 284 284 284 284 285 285 285 286 286 286 286 287 287 287 287 287 288 288 288 288 288 288 288 288 288 289 289 289 289 289 290
284 284 283 283 283 282 282 282 282 282 281 281 282 282 282 282 282 282 282 282 282 283 283 283 283 284 284 284 284 284 284 283 283 282 282 282 282 282 282 282 282 282 282 282 282 282 282 282 282 282 282 282 282 283 283 283 284 284 284 285 285 285 286 286 286 286 286 287 287 287 287 287 287 287 288 288 288 288 288 289 289 289 289 289 289 289
283 283 283 283 282 282 282 282 282 282 281 282 282 282 282 282 282 282 283 283 283 283 283 283 284 284 284 284 284 283 283 282 282 282 282 282 282 281 281 281 281 281 281 282 282 282 282 282 282 282 282 282 282 282 283 283 284 284 284 285 285 285 286 286 286 286 286 286 287 287 287 287 287 287 288 288 288 288 288 288 288 289 289 289 289 289
283 283 282 282 282 282 282 282 282 282 282 282 282 282 282 282 282 283 283 283 283 284 284 284 284 284 283 283 283 282 282 282 281 281 281 281 281 281 281 281 281 281 281 281 281 282 282 282 282 282 282 282 282 282 283 283 284 284 284 285 285 285 285 286 286 286 286 286 286 286 287 287 287 287 288 288 288 288 288 288 288 288 288 288 289 289
283 283 282 282 282 282 282 282 282 282 282 282 282 282 282 282 283 283 283 283 284 284 284 284 283 283 282 282 282 282 281 281 281 281 281 281 281 281 281 281 281 281 281 281 281 282 282 282 282 282 282 282 282 283 283 283 284 284 284 284 285 285 285 285 285 286 286 286 286 286 287 287 287 287 287 287 287 287 287 288 288 288 288 288 288 289
283 283 283 282 282 282 282 282 282 282 282 282 282 282 283 283 283 283 283 284 283 283 282 282 282 282 282 281 281 281 281 281 281 280 280 281 281 281 281 281 281 281 281 281 282 282 282 282 281 282 282 282 282 282 283 283 283 284 284 284 284 285 285 285 285 285 286 286 286 286 286 287 287 287 287 287 287 287 287 287 288 288 288 288 288 288
283 283 283 282 282 282 282 282 282 283 283 283 283 283 284 284 284 284 284 283 282 282 281 281 281 281 281 281 281 281 280 280 280 280 280 281 281 281 281 281 281 281 281 281 281 281 282 281 282 282 282 282 282 282 283 283 283 283 284 284 284 284 285 285 285 285 285 286 286 286 286 286 286 286 286 287 287 287 287 287 287 288 288 288 288 288
283 283 283 283 283 283 283 283 284 284 285 285 286 285 285 284 283 282 282 282 281 281 281 281 281 281 281 280 280 280 280 280 280 280 280 281 281 281 281 281 281 281 281 281 281 281 281 281 282 282 282 282 282 282 282 283 283 283 283 284 284 284 284 285 285 285 285 285 286 286 286 286 286 286 286 286 287 287 287 287 287 288 288 288 288 288
283 283 283 284 284 284 285 285 285 285 285 285 284 283 282 282 282 282 282 281 281 281 281 281 281 281 280 280 280 280 280 280 280 280 280 280 281 281 281 281 281 281 281 281 281 281 281 282 282 282 282 282 282 282 282 282 282 283 283 283 284 284 284 284 285 285 285 285 285 285 285 285 286 286 286 286 286 287 287 287 287 287 288 288 288 288
283 284 284 284 284 284 284 284 284 284 283 283 282 282 282 282 282 282 282 281 281 281 281 281 280 280 280 280 280 280 280 280 280 280 280 280 280 280 281 281 281 281 281 281 281 281 281 282 282 282 282 281 281 281 282 282 282 282 283 283 284 284 284 284 284 284 284 285 285 285 285 285 285 286 286 286 286 287 287 287 287 287 287 287 287 287
283 283 283 283 283 283 283 283 282 282 282 281 281 281 281 281 281 281 281 281 281 281 280 280 280 280 280 280 280 280 280 280 280 280 280 280 280 280 281 281 281 281 281 281 281 281 281 281 281 281 281 281 281 281 281 282 282 282 283 283 283 283 283 283 284 284 284 284 284 285 285 285 285 286 286 286 286 286 287 287 287 287 287 287 287 287
283 283 283 282 282 282 281 281 281 280 280 280 281 281 281 281 281 281 281 280 280 280 280 280 280 280 280 280 280 280 280 280 280 280 280 280 280 280 280 281 281 281 281 281 281 281 281 281 281 281 281 281 281 281 281 282 282 282 282 282 282 282 283 283 283 283 284 284 284 285 285 285 285 285 286 286 286 286 286 286 287 287 287 287 287 287
282 281 281 281 280 280 280 280 280 280 280 280 280 280 280 280 280 280 280 280 280 280 280 280 280 280 280 280 280 280 280 280 280 280 280 280 280 280 280 280 280 280 281 281 281 281 281 281 281 281 281 281 281 281 281 281 281 281 282 282 282 282 282 283 283 283 284 284 284 284 284 285 285 285 285 285 286 286 286 286 286 286 286 286 287 286
281 280 280 280 280 280 280 280 279 279 280 280 280 280 280 280 280 280 280 280 280 280 280 280 280 280 280 280 280 280 280 280 280 280 280 280 280 280 280 280 280 280 280 281 281 281 281 281 281 281 281 281 281 281 281 281 281 282 282 282 282 282 282 282 283 283 283 284 284 284 284 284 284 285 285 285 285 285 286 286 286 286 286 286 286 286
280 280 280 280 279 279 279 279 279 279 279 279 279 279 280 280 280 280 280 280 280 280 280 280 280 280 280 280 280 280 280 280 280 280 280 280 280 280 280 280 280 280 280 280 281 281 281 281 281 281 281 281 281 281 281 281 282 282 282 282 282 282 282 282 282 283 283 283 283 283 284 284 284 284 284 285 285 285 285 286 286 286 286 286 286 286
280 279 279 279 279 279 279 280 280 280 280 280 280 280 280 280 280 280 280 280 280 280 280 280 280 280 280 280 279 280 280 280 280 280 280 280 280 280 280 280 280 280 280 280 280 280 281 281 281 281 281 281 281 281 281 282 282 282 282 282 282 282 282 282 282 282 282 283 283 283 283 283 283 284 284 284 284 285 285 285 285 286 286 286 286 286
279 279 279 279 279 279 279 280 280 280 280 280 280 280 280 280 280 280 280 280 280 280 279 279 279 279 279 279 279 279 279 279 280 280 280 280 280 280 280 280 280 280 280 280 280 281 281 281 281 281 281 281 281 282 282 282 282 282 282 282 282 282 282 282 282 282 282 282 282 283 283 283 283 283 283 283 284 284 284 285 285 285 285 286 286 286
279 279 279 279 279 279 280 280 280 280 280 280 280 280 280 280 280 280 279 279 279 279 279 279 279 279 279 279 279 279 279 279 279 280 280 280 280 280 280 280 280 280 280 280 280 281 281 281 281 281 281 281 281 281 281 281 282 282 282 282 282 282 282 282 282 282 282 282 282 282 283 283 283 283 283 283 283 284 284 284 285 285 286 286 286 286
279 279 280 280 280 280 280 280 280 280 280 280 280 280 280 280 279 279 279 279 279 279 279 279 279 279 279 279 279 279 279 279 279 279 280 280 280 280 280 280 280 280 280 280 280 280 281 281 281 281 281 281 281 281 281 281 282 282 282 282 282 282 282 282 282 282 282 282 283 283 283 283 283 283 283 283 283 284 284 285 285 285 286 286 286 286
280 280 280 280 280 280 280 280 280 280 280 280 280 280 280 279 279 279 279 279 279 279 279 279 279 279 279 279 279 279 279 279 279 279 279 279 279 280 280 280 280 280 280 280 280 281 281 281 281 281 281 281 281 281 281 281 282 282 282 282 282 282 282 282 282 282 283 283 283 283 283 283 283 283 283 284 284 284 284 285 285 285 285 285 285 286
280 280 280 280 280 280 280 280 280 280 279 279 279 279 279 279 279 279 279 279 279 279 279 279 279 279 279 279 279 279 279 279 279 279 279 279 279 280 280 280 280 280 280 280 280 280 281 281 281 281 281 281 281 281 281 281 281 281 281 282 282 282 282 282 282 283 283 283 283 283 283 283 283 284 284 284 284 284 284 284 284 284 284 284 285 285
280 280 280 280 280 280 280 280 279 279 279 279 279 279 279 279 279 279 279 279 279 279 279 279 279 279 279 279 279 279 279 279 279 279 279 279 279 280 280 280 280 280 280 280 280 280 280 281 281 281 281 281 281 281 281 281 281 281 281 282 282 282 282 282 283 283 283 283 283 283 283 283 283 283 283 283 283 284 284 284 284 284 284 284 284 284
280 280 280 280 280 279 279 279 279 279 279 279 279 279 279 279 279 279 279 279 279 279 279 279 279 279 279 279 279 279 279 279 279 279 279 279 279 280 280 280 280 280 280 280 280 280 280 280 281 281 281 281 281 281 281 281 281 282 282 282 282 282 282 283 283 283 283 283 283 283 283 283 283 283 284 284 284 284 284 284 284 284 284 284 284 284
280 279 279 279 279 279 279 279 279 279 279 279 279 279 279 279 279 279 279 279 279 279 279 279 279 279 279 279 279 279 279 279 279 279 279 280 280 280 280 280 280 280 280 280 280 280 280 280 280 281 281 281 281 281 281 281 282 282 282 282 282 282 282 283 283 283 283 283 283 283 283 283 284 284 284 284 284 284 284 284 284 284 284 284 284 284
279 279 279 279 279 279 279 279 279 279 279 279 279 279 279 279 279 279 279 279 279 279 279 279 279 279 279 279 279 279 279 279 280 280 280 280 280 280 280 280 280 280 280 280 280 280 280 281 281 281 281 281 281 281 281 282 282 282 282 282 282 282 282 283 283 283 283 283 283 283 283 284 284 284 284 284 284 284 284 284 284 284 284 284 284 284
278 278 278 279 279 279 279 279 279 279 279 279 279 279 279 279 279 279 279 279 279 279 279 279 279 279 279 279 279 279 279 280 280 280 280 280 280 280 280 280 280 280 280 280 280 280 281 281 281 281 281 281 281 281 282 282 282 282 282 282 282 282 283 283 283 283 283 283 283 283 283 284 284 284 284 284 284 284 284 284 284 284 284 284 285 285
278 278 278 279 279 279 279 279 279 279 279 278 279 279 279 279 279 279 279 279 279 279 279 279 279 279 279 279 279 279 280 280 280 280 280 280 280 280 280 280 280 280 280 280 280 281 281 281 281 281 281 281 281 281 282 282 282 282 282 282 282 282 283 283 283 283 283 283 283 283 284 284 284 284 284 284 284 284 284 284 284 284 284 285 285 285
278 278 278 279 279 279 279 278 278 278 278 278 278 278 279 279 279 279 279 279 279 279 279 279 279 279 279 279 279 280 280 280 280 280 280 280 280 280 280 280 280 280 281 281 281 281 281 281 281 281 281 281 281 282 282 282 282 282 282 282 282 282 283 283 283 283 283 283 283 283 284 284 284 284 284 284 284 284 285 285 285 285 285 285 285 285
278 278 278 278 278 278 278 278 278 278 278 278 278 278 278 279 279 279 279 279 279 279 279 279 279 279 279 279 279 280 280 280 280 280 280 280 280 280 280 280 281 281 281 281 281 281 281 281 281 281 281 282 282 282 282 282 282 282 282 282 282 283 283 283 283 283 283 283 283 284 284 284 284 284 284 284 285 285 285 285 285 285 285 285 285 285
278 278 278 278 278 278 278 278 278 278 278 278 278 278 278 279 279 279 279 279 279 279 279 279 279 279 279 279 279 279 280 280 280 280 280 280 280 281 281 281 281 281 281 281 281 281 281 281 281 281 282 282 282 282 282 282 282 282 282 282 282 283 283 283 283 283 283 284 284 284 284 284 284 285 285 285 285 285 285 285 285 285 285 285 285 285
278 278 278 278 278 278 278 278 278 278 278 278 278 278 278 278 279 279 279 279 279 279 279 279 279 279 279 279 279 279 280 280 280 280 280 280 281 281 281 281 281 281 281 281 281 281 281 281 281 281 281 281 282 282 282 282 282 282 282 282 283 283 283 283 283 283 284 284 284 284 285 285 285 285 285 285 285 285 285 285 285 285 285 285 285 285
278 278 278 278 278 278 278 278 278 278 278 278 278 278 278 278 279 279 279 279 279 279 279 279 279 279 279 279 279 279 280 280 280 280 280 281 281 281 281 281 281 281 281 281 282 282 282 282 282 282 282 282 282 282 282 282 282 282 282 283 283 283 283 283 284 284 284 285 285 285 285 285 285 285 285 285 285 285 285 285 285 285 285 285 285 285
277 277 277 278 278 278 278 278 278 278 278 278 278 278 278 278 279 279 279 279 279 279 279 279 279 279 279 279 279 280 280 280 280 280 281 281 281 281 281 281 281 281 282 282 282 282 282 282 282 282 282 282 282 282 282 283 283 283 283 283 283 284 284 284 284 285 285 285 285 285 285 285 285 285 285 285 285 285 285 285 285 285 285 285 285 285
277 277 277 277 277 277 278 278 278 278 278 278 278 278 278 278 278 278 279 279 279 279 279 279 279 279 279 279 280 280 280 280 280 281 281 281 281 281 281 281 281 281 282 282 282 282 282 282 282 283 283 283 283 283 283 283 283 284 284 284 284 284 284 285 285 285 285 285 285 285 285 285 285 285 285 285 285 285 285 285 285 285 285 285 285 285
Wind_Speed
18 19 20 20 20 21 21 21 21 22 23 24 24 25 25 25 26 27 27 27 27 27 27 27 27 27 27 27 26 26 25 26 26 26 26 27 27 27 27 27 27 27 28 28 28 28 28 28 27 27 27 27 27 26 26 26 26 27 27 27 27 27 27 27 27 27 27 27 27 27 27 27 27 27 27 27 27 27 27 27 27 27 28 28 29 29
18 19 19 18 19 20 21 21 21 21 23 24 25 25 26 27 27 27 27 26 26 26 26 27 27 27 27 27 26 26 25 25 26 26 26 26 27 27 27 28 28 28 28 28 28 28 28 27 27 27 27 26 26 26 26 27 27 27 27 27 27 27 27 27 27 27 27 27 27 27 27 27 27 27 27 27 27 27 28 28 28 28 28 28 28 28
18 18 18 18 18 19 20 21 21 21 22 24 25 26 26 27 27 27 26 26 26 26 26 26 26 26 26 26 26 25 25 25 25 26 26 27 27 28 28 28 28 28 28 28 28 28 27 27 27 27 27 26 27 27 27 27 27 27 27 27 27 27 28 27 27 27 27 27 27 27 27 27 27 27 27 27 27 28 28 28 28 29 29 29 29 29
17 17 18 18 18 19 19 20 21 22 23 24 25 26 26 27 27 26 26 26 26 26 25 25 25 25 25 26 26 25 25 25 25 26 27 27 28 28 28 28 28 28 28 28 28 27 27 27 27 27 27 27 27 27 27 27 27 28 28 28 28 28 28 28 27 27 27 27 27 26 26 26 26 26 27 27 27 27 28 28 28 29 29 29 29 29
17 17 18 19 19 19 20 20 21 23 23 24 25 25 25 25 25 26 25 25 25 24 24 24 24 24 25 25 25 25 25 25 25 26 27 27 28 28 28 28 28 28 28 28 27 27 27 27 27 27 27 27 27 27 28 28 28 28 29 28 28 28 28 27 27 27 26 26 26 26 26 26 26 26 26 26 27 27 27 27 27 28 28 28 29 29
18 18 18 19 19 20 21 21 22 23 23 24 24 24 24 24 24 24 24 23 23 23 24 24 24 24 24 24 25 25 25 25 26 26 27 27 28 28 28 27 27 27 27 27 27 27 27 27 27 28 28 28 28 28 28 29 29 29 29 29 28 28 27 27 26 26 26 25 25 25 25 25 25 25 26 26 26 26 26 26 27 27 27 27 28 28
19 19 19 19 20 20 21 21 22 22 23 24 25 24 23 22 22 22 22 22 23 23 24 24 23 23 23 24 24 25 25 26 26 26 27 27 27 27 27 27 27 27 27 27 27 27 27 27 27 28 28 28 29 29 30 30 30 30 29 29 28 27 26 26 26 25 25 25 25 25 25 25 25 26 26 26 26 26 26 26 26 27 27 27 27 28
20 20 19 20 20 21 21 21 22 22 23 24 23 23 22 21 20 21 22 22 22 22 23 23 23 22 23 24 24 25 26 26 26 27 26 26 26 26 26 26 26 26 27 27 27 27 27 27 28 28 29 29 30 30 30 30 30 29 29 28 27 26 26 25 25 25 25 25 25 25 25 25 25 26 26 26 26 26 26 27 27 27 27 27 28 28
19 20 20 20 20 21 22 22 22 22 23 22 21 20 20 21 22 22 22 22 21 21 21 22 23 23 24 24 25 25 25 25 25 25 26 26 26 27 27 26 26 26 26 26 26 27 27 28 28 29 30 30 31 31 31 30 29 28 28 27 26 26 26 25 25 25 25 26 26 26 26 26 26 26 26 26 27 27 27 28 28 28 28 28 29 29
18 19 20 21 21 21 22 22 23 22 21 20 19 18 18 20 22 22 22 22 22 21 21 22 23 24 24 24 24 25 25 25 25 25 25 26 26 26 26 26 25 25 25 25 26 27 28 28 29 30 30 31 31 30 30 29 28 27 27 26 26 26 26 26 26 26 26 26 26 26 26 26 26 27 27 27 28 28 28 29 29 29 29 29 29 29
19 19 20 21 21 21 20 20 20 19 18 18 18 18 18 19 20 21 22 23 23 23 22 22 22 23 24 25 25 25 25 26 26 26 25 26 26 25 25 24 24 24 24 25 26 28 29 29 29 30 30 30 29 29 28 27 27 26 26 26 26 26 26 26 26 26 26 27 27 27 27 27 27 28 28 28 29 29 29 29 29 29 29 29 29 30
18 19 20 20 20 19 17 16 15 15 16 18 19 19 19 19 19 20 22 23 24 24 24 23 23 23 24 25 26 26 25 25 25 25 25 25 24 24 23 23 23 24 25 26 27 28 29 29 29 29 29 28 28 27 27 26 26 26 26 26 26 27 27 27 27 27 27 28 28 28 28 28 28 28 28 29 29 29 30 29 29 29 29 29 29 30
19 19 19 19 17 15 13 13 15 17 18 19 19 19 20 20 21 21 22 23 23 24 24 24 24 24 24 25 25 25 25 24 24 24 23 23 22 22 22 23 24 25 26 27 28 29 29 29 28 28 27 27 26 26 26 26 26 26 26 27 27 27 27 27 28 28 28 29 29 29 29 29 29 29 29 29 29 29 29 29 29 29 29 29 29 30
19 18 17 15 13 12 13 15 18 19 19 19 19 20 21 22 22 22 22 23 23 23 24 25 25 25 24 24 23 23 23 23 22 22 21 21 20 21 22 23 25 26 27 28 29 29 29 28 27 27 27 27 27 27 27 26 26 27 27 27 27 28 28 28 29 29 29 29 29 29 29 29 29 29 29 30 30 30 29 29 29 29 29 29 29 29
17 15 13 12 12 14 16 19 20 20 20 20 21 21 22 22 22 21 21 22 23 24 24 25 25 25 23 22 21 21 21 21 20 20 20 20 21 22 23 25 26 27 27 28 28 28 28 27 27 27 28 28 28 28 27 27 27 27 28 28 29 29 29 29 29 29 29 29 29 29 30 30 30 30 30 30 30 30 29 29 29 29 29 29 29 29
13 10 10 12 15 17 19 20 20 21 21 22 21 21 22 21 21 21 21 22 23 23 23 22 22 22 22 21 19 19 19 19 18 19 20 22 23 24 25 26 27 28 27 27 27 27 27 26 26 27 27 28 27 27 27 27 28 28 29 29 30 30 29 29 29 29 29 29 30 30 30 30 30 30 30 30 30 30 29 29 29 29 29 29 29 29
10 11 14 16 18 19 21 21 21 21 22 22 21 20 20 20 21 21 21 22 22 22 20 19 15 13 15 20 20 18 18 18 18 19 21 24 26 27 26 26 27 27 27 26 26 25 25 25 26 26 27 27 27 27 27 28 29 29 30 30 30 30 30 30 30 30 30 30 30 30 30 30 30 30 30 30 30 30 29 29 29 29 29 29 29 29
12 16 18 19 19 20 21 21 21 21 21 21 20 20 20 20 21 21 22 22 21 20 20 19 16 12 11 16 19 19 18 19 20 22 24 27 28 28 27 26 25 26 26 25 25 25 25 25 26 27 27 27 28 28 29 29 30 30 30 30 30 30 30 30 30 30 30 30 30 30 30 30 30 30 30 30 30 29 29 29 30 30 29 29 29 29
17 19 20 20 21 21 21 21 21 20 20 19 20 20 21 21 21 22 22 22 21 20 19 18 18 18 17 18 20 21 21 21 22 24 25 27 28 28 26 24 24 24 24 25 25 25 25 25 26 27 28 28 29 29 29 30 30 30 30 30 31 31 31 31 31 31 31 31 30 30 30 30 30 30 30 30 30 30 30 30 30 30 30 30 29 29
20 21 20 20 21 21 21 20 20 19 19 20 20 21 22 22 23 22 23 22 21 19 18 17 17 17 18 20 22 24 24 24 24 24 25 26 27 27 24 23 22 23 24 24 25 25 25 26 27 28 28 29 29 29 29 30 30 30 31 31 31 32 31 31 31 31 31 31 31 31 30 30 30 30 30 30 30 30 30 30 30 30 30 30 30 29
21 21 21 21 20 20 20 20 20 20 21 22 22 22 23 23 23 23 22 20 18 17 15 15 15 17 19 22 25 27 27 25 23 23 24 24 25 24 23 21 21 22 23 24 25 25 25 26 27 28 28 28 29 29 30 30 31 31 32 32 32 32 32 32 32 31 31 31 31 31 31 30 30 30 30 30 31 31 31 31 31 30 30 30 30 29
21 22 22 21 20 20 20 21 22 23 24 25 25 24 23 22 21 20 19 17 15 14 14 15 18 21 24 26 28 28 27 24 22 21 21 20 22 23 22 21 20 22 23 24 25 25 25 26 26 27 28 28 29 30 30 31 31 32 32 32 33 33 32 32 32 32 31 31 31 31 31 31 31 31 31 31 31 31 31 31 31 30 30 30 29 29
21 21 21 21 21 21 22 24 25 27 27 27 27 26 24 23 21 19 17 16 16 18 20 23 25 26 27 26 27 27 25 23 22 20 18 16 18 22 22 20 20 22 23 24 24 25 25 25 26 27 28 28 29 30 30 31 31 32 32 33 33 33 33 32 32 32 31 31 31 31 31 31 31 31 31 31 31 31 31 31 30 30 30 29 29 29
20 21 21 22 23 24 25 26 26 26 26 26 26 25 23 20 18 18 19 20 22 23 24 26 26 26 25 25 25 25 24 22 20 18 17 16 18 21 22 21 21 22 23 24 24 24 25 25 26 27 27 28 29 30 30 31 31 32 32 32 32 32 32 32 32 32 32 31 32 32 32 32 32 32 32 31 31 31 30 30 30 30 29 29 29 29
21 21 22 23 23 24 24 24 24 24 24 24 22 20 19 20 22 25 27 27 26 24 23 23 22 22 22 22 22 23 22 20 19 17 16 16 19 22 22 21 21 22 24 25 25 24 25 26 26 27 27 28 29 29 30 31 31 31 32 32 32 32 32 32 32 32 32 32 32 32 32 32 32 32 32 31 31 30 30 30 30 30 29 29 29 29
21 21 21 22 22 23 23 23 23 23 24 24 24 24 24 24 25 25 24 23 22 20 19 18 17 18 20 20 21 21 22 21 19 18 17 17 19 21 23 22 21 22 24 25 25 24 24 25 26 27 27 28 29 29 30 30 30 31 31 31 31 31 32 32 32 32 33 33 33 33 33 32 32 32 31 31 31 30 30 30 30 30 29 29 29 29
21 21 21 21 21 21 21 22 22 23 23 23 23 23 22 22 21 20 19 18 17 17 16 15 14 15 18 18 19 21 22 22 20 19 18 19 19 20 21 21 21 22 24 25 25 25 24 25 26 27 27 28 29 29 29 29 29 29 30 30 31 31 32 32 32 33 33 33 33 32 32 32 31 31 31 31 30 30 30 30 30 29 29 29 29 29
19 19 18 18 19 19 20 21 22 23 23 23 22 21 20 19 18 17 16 17 17 17 16 15 13 12 14 16 19 22 24 23 22 20 19 18 17 18 20 21 21 22 23 25 26 26 25 24 25 26 26 27 27 27 28 27 28 28 29 30 31 32 32 32 32 32 32 32 32 31 31 31 31 31 31 30 30 30 30 29 29 29 29 28 28 28
16 16 16 17 18 19 20 22 22 22 21 20 19 18 17 17 17 17 17 18 18 17 17 17 15 14 15 18 21 23 24 23 21 19 18 16 16 18 21 21 21 22 22 24 25 26 24 23 23 23 24 24 25 25 26 27 28 29 30 31 31 32 32 32 31 31 31 31 31 31 31 31 31 31 30 30 30 30 29 29 29 29 28 27 26 26
15 16 18 19 20 21 21 21 21 20 19 18 18 17 17 17 17 18 19 19 18 17 17 17 17 17 17 18 17 17 19 21 19 17 16 15 16 18 21 21 22 22 21 20 17 16 19 22 22 21 21 23 24 25 27 28 29 30 30 31 31 31 31 30 30 30 30 30 30 30 30 31 30 30 30 30 30 30 29 29 28 28 27 26 26 26
18 20 21 22 22 22 21 20 19 19 19 18 18 18 17 17 18 18 18 18 17 16 17 17 17 18 17 14 9 7 9 19 21 18 17 16 17 19 21 21 21 22 21 17 8 4 11 16 20 22 21 23 24 26 28 28 29 29 29 30 30 30 30 30 29 29 29 30 30 30 30 30 30 30 30 30 30 29 29 29 28 27 26 26 26 26
22 22 22 22 21 20 19 18 18 19 19 19 19 18 17 17 17 17 17 17 17 17 17 17 18 19 18 16 11 9 13 21 24 22 20 18 19 21 21 20 21 22 22 20 15 10 8 8 17 24 24 24 25 26 27 28 28 28 29 29 30 30 30 29 29 29 29 29 29 29 29 29 30 30 30 29 29 29 29 29 28 27 26 25 25 25
22 22 21 20 19 19 18 18 18 19 19 19 18 18 17 17 16 16 16 17 17 18 18 18 19 19 19 20 19 19 22 25 25 23 21 19 19 20 21 21 21 22 23 23 22 20 15 14 19 25 26 26 25 25 26 26 27 28 28 29 29 30 30 30 29 29 29 29 29 29 29 29 29 29 29 29 29 29 29 28 27 26 25 25 24 24
21 20 19 19 19 19 18 18 18 19 18 18 17 17 17 17 17 17 17 18 18 18 19 19 19 20 20 20 21 23 25 26 25 23 21 20 19 20 22 22 22 22 22 22 22 22 21 22 23 23 24 25 26 25 25 26 26 27 28 28 29 30 30 30 29 29 29 29 29 29 29 29 29 29 29 29 29 28 28 27 27 26 25 25 25 24
19 18 18 18 18 18 18 18 18 18 18 17 17 17 17 18 18 18 19 19 19 19 20 20 20 20 20 20 20 22 25 27 26 24 22 21 21 22 23 22 22 22 21 21 21 20 20 22 24 23 22 24 25 26 26 25 26 27 28 28 28 29 29 29 29 29 29 29 29 30 29 29 29 29 29 29 28 28 27 27 27 26 26 26 26 26
17 17 17 17 17 18 18 18 18 17 17 18 18 18 18 19 19 19 20 20 20 21 21 21 22 22 23 23 23 24 26 28 28 26 24 23 23 23 23 23 23 22 21 21 21 20 19 21 23 24 23 21 21 24 26 26 26 26 27 28 28 29 29 29 29 29 29 29 29 29 29 29 28 28 29 29 28 28 28 28 28 28 28 28 28 28
16 16 17 17 17 17 18 18 18 18 18 18 19 19 19 19 20 21 21 22 22 22 23 23 23 23 24 25 26 27 28 29 29 29 28 27 27 26 25 25 25 24 22 21 22 22 21 20 21 22 21 19 18 20 24 26 27 27 28 28 28 29 29 29 29 28 28 28 28 28 28 28 28 28 28 28 28 28 28 28 28 28 28 28 28 28
16 16 17 17 17 17 17 18 18 18 19 19 20 20 21 21 22 22 22 23 23 23 23 23 23 24 25 25 27 29 31 32 33 33 33 31 30 29 27 26 26 26 24 23 23 23 22 18 15 13 13 18 22 24 25 26 27 28 29 29 29 28 29 28 28 27 26 27 27 27 28 27 27 28 28 28 28 28 28 29 29 28 28 28 28 28
15 16 16 17 17 17 17 18 19 19 20 20 21 21 22 22 23 23 23 22 22 22 22 23 23 25 26 28 29 30 30 31 32 33 33 32 31 30 28 27 26 27 26 25 24 23 22 20 16 12 10 15 21 25 26 26 26 27 29 29 29 29 28 27 26 26 26 26 27 28 28 28 28 28 28 28 28 28 27 28 28 28 27 26 26 27
16 16 16 17 17 17 17 18 19 20 21 22 22 22 22 22 22 22 22 22 22 22 23 23 24 25 26 26 27 27 28 30 31 31 32 32 32 31 30 28 27 27 26 26 25 24 23 22 23 23 22 20 21 24 25 27 27 28 28 26 26 27 28 28 27 27 27 27 27 27 28 28 28 27 27 28 27 27 26 27 27 27 27 26 25 25
16 16 17 17 18 18 18 19 20 21 21 22 22 22 21 21 22 22 23 23 23 23 23 23 23 24 25 26 26 27 27 28 29 29 30 30 30 30 30 29 28 28 27 26 25 24 23 23 24 25 25 24 25 26 26 28 29 29 28 25 26 28 30 30 29 28 27 27 27 27 27 27 27 27 27 27 28 28 28 28 28 28 27 26 25 24
16 16 17 18 19 19 20 20 20 21 21 21 21 20 21 21 21 22 22 23 23 23 23 22 23 24 25 26 26 26 26 26 27 27 28 28 28 28 29 29 29 28 26 26 26 25 25 25 25 24 25 25 25 24 25 28 30 29 28 27 28 29 30 30 29 27 26 26 26 26 26 26 27 27 28 28 28 29 29 29 29 28 27 26 26 26
17 17 18 19 20 20 20 20 20 20 20 20 20 21 21 21 21 21 21 22 22 23 23 22 22 23 24 25 26 26 26 26 25 25 26 26 27 27 28 28 29 29 28 26 25 25 26 26 25 25 25 25 25 24 25 28 29 30 29 28 27 25 22 25 28 27 26 26 26 26 26 26 27 27 28 28 29 29 29 29 29 29 28 28 27 28
18 18 19 19 20 20 20 20 20 20 20 20 21 21 21 21 20 20 21 21 22 23 22 22 22 22 22 24 25 26 26 26 25 25 25 25 25 26 26 27 28 28 28 26 25 25 26 26 26 26 26 25 25 25 26 28 29 29 30 29 28 25 23 25 28 29 28 28 27 27 27 27 28 29 29 29 29 28 28 27 28 28 28 29 29 29
18 18 19 19 19 19 19 20 20 20 20 21 21 21 21 21 21 21 21 21 22 23 22 22 21 20 21 22 24 25 26 26 26 26 25 25 25 25 25 26 27 28 28 27 26 25 24 24 26 27 27 26 25 25 26 27 28 29 30 30 29 28 29 30 29 28 27 27 28 28 28 28 28 28 28 28 28 28 26 26 26 27 28 28 28 29
17 18 19 19 19 19 19 20 20 20 20 21 21 21 21 22 21 21 21 21 22 22 22 21 20 19 20 21 23 24 25 26 27 27 26 26 26 26 25 26 26 26 26 26 26 26 26 26 27 27 26 26 26 26 27 27 27 27 29 29 29 28 29 29 29 28 28 28 28 28 28 28 27 26 25 26 27 27 27 26 26 26 27 27 28 29
17 18 18 19 19 19 20 20 20 20 20 21 21 22 22 22 22 22 21 21 21 21 21 21 20 19 20 21 22 22 23 24 26 27 27 27 27 27 26 26 25 25 25 26 26 27 28 29 29 28 26 25 24 26 29 29 28 27 28 28 28 28 27 28 29 29 28 28 28 28 28 27 26 25 25 25 26 27 27 27 26 27 27 27 28 29
17 18 18 19 19 19 20 20 20 20 20 21 22 22 22 22 21 21 21 21 21 20 20 21 20 20 21 22 22 22 22 23 24 26 27 27 27 27 27 27 26 26 26 26 26 27 28 29 30 30 28 26 24 25 28 29 29 28 28 28 28 27 27 29 30 29 28 28 28 28 27 25 23 22 23 24 26 27 28 28 28 27 27 27 28 29
18 18 18 18 18 19 19 19 20 20 20 21 22 22 23 22 22 21 20 21 21 21 20 20 20 20 21 21 22 23 23 24 24 25 25 26 26 26 26 27 27 27 27 27 27 27 28 29 29 28 28 27 26 26 28 29 29 29 29 28 27 26 26 28 29 29 28 28 28 27 26 24 23 23 24 24 25 27 29 30 29 28 27 27 28 29
18 18 18 18 18 18 19 19 20 20 20 21 22 22 23 23 23 22 21 21 20 20 20 20 20 20 20 21 23 23 23 23 24 24 25 25 25 25 25 26 26 26 26 26 26 26 25 25 25 25 24 24 25 26 27 28 29 29 29 28 27 27 26 27 28 29 28 27 26 25 25 24 24 24 25 24 25 27 29 29 29 28 27 26 26 28
18 18 18 18 18 18 19 19 20 20 21 21 21 22 23 23 23 22 22 21 20 20 20 20 20 20 21 22 23 23 23 23 23 23 25 25 25 25 25 25 25 25 23 22 21 19 18 16 18 20 22 22 22 23 25 26 26 27 26 27 27 27 26 26 27 27 27 26 25 24 25 24 25 24 24 23 23 24 25 27 28 28 26 25 25 26
Wind_Direction
301 302 304 306 307 307 306 307 308 308 308 308 309 309 309 309 308 308 308 307 307 306 306 305 305 305 305 305 303 302 301 302 302 303 303 303 303 303 303 303 303 303 303 302 302 302 301 301 300 300 299 299 298 297 297 296 296 295 295 295 295 295 295 295 294 294 293 294 294 294 294 293 293 292 292 291 291 290 290 288 287 286 285 284 283 283
303 304 305 307 307 306 305 306 307 307 307 307 307 308 308 307 307 307 307 306 306 305 304 304 304 304 304 303 303 302 301 301 302 302 302 303 303 303 303 303 303 303 303 303 302 302 301 301 300 300 299 299 298 297 297 296 296 296 296 297 297 297 297 296 296 295 294 295 294 293 293 293 292 291 290 289 288 287 286 285 285 284 283 282 281 281
307 307 307 308 307 306 304 305 305 305 305 305 305 305 306 305 305 305 305 305 305 305 304 304 303 303 302 302 302 301 301 301 302 302 303 303 303 303 303 303 303 303 303 303 302 302 302 301 301 300 299 299 298 297 297 297 297 297 298 298 298 298 297 296 296 295 294 294 294 293 292 292 291 290 289 287 286 285 284 283 282 281 280 280 279 278
309 308 308 309 307 305 303 304 304 304 303 303 303 304 304 304 304 303 303 304 304 304 304 304 303 302 301 301 301 301 301 302 302 302 302 303 303 303 302 303 303 302 302 302 302 302 302 301 300 299 298 298 297 297 297 298 298 298 299 299 298 297 297 296 295 295 294 294 293 293 292 291 290 289 288 286 285 284 282 282 281 280 279 278 277 276
308 308 308 309 307 305 303 303 303 303 303 303 303 303 304 303 302 302 302 303 303 304 303 303 302 301 300 301 301 302 301 302 302 302 302 302 302 302 302 302 302 302 302 302 302 301 301 300 299 299 298 297 297 298 298 299 299 299 299 299 298 297 296 295 295 294 294 294 293 292 291 291 290 288 287 285 284 283 282 282 281 279 278 277 276 275
306 306 307 306 304 303 304 303 304 304 304 303 303 303 302 301 301 301 303 304 304 303 302 301 301 301 301 302 302 302 301 301 301 301 301 301 301 301 301 301 301 301 301 301 301 301 300 300 299 298 298 298 298 299 299 299 299 299 299 299 298 297 296 296 295 294 294 293 293 292 292 291 290 288 287 286 285 283 282 281 280 279 278 277 276 275
305 305 305 304 303 302 303 303 304 304 304 303 303 303 301 301 301 302 303 304 304 303 302 302 302 303 303 303 303 302 301 301 301 301 300 300 300 300 300 300 300 300 300 300 300 300 299 299 299 298 299 299 299 300 300 300 300 299 299 298 298 297 297 296 296 295 295 294 294 293 292 291 289 288 287 286 285 283 282 281 280 279 278 277 276 275
303 304 305 304 304 304 303 303 303 303 302 301 301 302 302 303 304 304 304 304 304 304 304 304 304 304 303 303 302 302 302 301 301 301 300 300 300 299 299 299 299 299 299 299 299 299 299 299 299 299 299 299 299 300 300 300 300 299 299 298 298 297 297 297 296 296 295 295 294 293 291 290 289 288 287 286 285 284 283 282 281 279 278 277 276 275
301 304 304 304 304 305 304 303 302 301 299 298 298 299 302 305 306 307 306 306 306 306 306 306 306 305 304 303 303 302 301 301 300 300 300 299 299 298 299 299 299 299 299 299 299 299 299 299 299 299 299 299 299 299 300 300 300 299 298 298 297 297 296 296 296 295 295 294 293 292 291 290 289 288 287 286 285 284 283 282 281 280 279 278 277 276
300 302 304 303 302 300 298 298 299 300 300 300 299 299 301 304 307 309 309 309 309 308 308 307 306 306 305 304 303 303 302 300 298 297 297 296 296 296 297 297 297 298 298 299 299 299 299 299 299 299 299 299 299 299 299 299 299 298 298 297 297 296 296 295 295 294 294 293 292 291 290 289 289 288 287 286 285 284 283 282 281 280 280 278 278 277
302 301 302 301 300 297 292 290 294 299 305 307 306 304 304 306 309 311 311 311 310 310 309 307 306 305 305 305 304 303 302 300 299 297 296 296 296 296 296 296 296 297 298 299 299 299 299 299 299 299 299 299 299 299 299 299 298 298 297 296 296 295 295 294 294 293 292 291 291 291 290 290 289 288 287 286 285 284 284 283 282 281 281 279 278 277
301 301 299 297 296 295 291 292 298 307 313 313 312 311 310 310 310 310 310 309 309 309 308 307 305 304 303 302 302 302 301 299 298 298 298 298 298 298 298 298 298 299 299 300 300 299 299 299 299 299 299 298 298 298 298 298 297 297 296 295 295 295 294 294 293 292 292 291 291 291 291 290 289 288 288 287 286 285 285 284 283 283 282 280 279 278
298 296 294 290 288 290 296 305 312 314 315 314 313 311 311 311 311 310 307 305 305 306 306 306 305 303 301 300 300 299 298 298 297 297 297 297 298 299 300 300 301 302 302 302 301 300 300 300 300 299 298 298 297 297 297 297 296 296 295 295 295 295 294 293 293 292 292 292 291 291 291 290 290 289 288 288 287 286 286 285 284 283 282 281 280 279
294 290 287 285 287 296 307 314 315 313 312 311 309 308 308 309 309 308 306 304 303 304 305 304 303 301 301 300 299 298 297 297 298 298 297 297 298 300 302 303 303 303 302 301 300 299 299 300 299 298 298 297 297 297 297 297 297 296 296 295 295 295 294 294 293 293 292 292 291 291 290 290 289 289 288 288 287 287 286 285 284 283 282 281 280 279
288 286 286 293 302 309 312 313 311 309 307 307 307 307 307 307 307 307 305 303 303 304 305 303 301 300 300 300 300 301 300 299 299 299 299 298 299 301 303 304 303 302 301 300 298 298 298 298 297 297 297 298 298 298 298 297 297 296 296 296 295 295 295 294 294 293 292 291 291 291 290 290 290 289 289 288 288 287 286 285 284 283 282 281 280 279
287 294 304 311 312 310 309 308 307 305 305 305 306 307 306 306 305 304 303 302 302 303 303 302 302 302 302 302 304 305 304 303 303 302 302 301 301 302 304 303 302 301 299 298 296 296 297 297 297 296 297 297 297 297 297 296 296 295 295 295 295 295 294 294 293 293 292 291 291 291 291 291 290 290 289 289 288 287 286 285 283 282 281 280 279 278
301 312 312 310 308 306 305 305 304 303 304 304 305 304 303 302 301 300 299 299 299 300 299 298 299 302 304 305 307 308 310 310 309 307 304 302 301 302 303 302 300 298 297 296 294 294 295 296 296 296 296 296 296 296 296 295 295 295 294 294 294 294 294 294 293 293 292 292 292 292 292 291 291 291 290 289 288 287 286 285 284 282 281 280 278 277
312 311 307 305 303 302 303 303 302 302 303 303 303 301 299 297 296 296 295 294 293 292 293 292 293 295 298 302 305 308 312 314 313 309 305 302 300 301 302 301 298 296 295 294 293 293 294 294 294 294 295 295 295 295 294 294 294 294 294 294 293 293 293 293 293 293 293 293 293 292 292 292 291 291 290 289 289 288 287 285 284 283 282 280 279 278
307 304 302 300 299 300 300 300 301 301 301 300 299 298 297 295 294 293 291 289 287 285 286 287 289 290 292 295 300 305 311 314 312 308 304 301 300 301 302 301 298 295 293 292 292 292 293 293 293 293 293 293 294 294 294 294 294 293 293 293 293 293 293 293 293 293 293 293 292 292 292 291 291 290 290 289 288 287 286 286 285 284 283 282 280 280
302 299 298 298 298 298 297 297 297 297 297 296 295 293 292 292 291 290 288 287 285 283 282 283 285 289 294 298 301 305 309 311 310 305 301 299 299 300 301 300 297 294 292 291 292 292 293 293 293 293 293 293 293 293 293 293 293 293 292 292 292 292 292 292 292 292 292 292 292 292 291 291 290 289 289 288 288 287 286 286 285 284 283 282 281 280
297 295 294 294 294 294 293 294 294 294 292 290 289 287 287 287 287 286 285 285 286 286 285 286 290 296 301 302 302 303 306 308 307 303 300 299 298 298 299 298 296 293 292 291 292 293 293 293 293 293 293 293 293 292 293 292 292 292 292 292 291 291 291 291 291 292 291 291 291 291 291 290 289 289 289 288 288 287 287 286 285 284 283 282 281 280
292 291 292 292 290 288 288 289 289 289 288 286 284 282 282 281 281 283 286 288 292 296 299 300 301 301 301 300 299 300 303 304 303 300 299 297 295 296 298 298 296 293 291 292 293 294 294 293 292 292 292 292 292 292 292 292 292 291 291 291 291 291 291 291 291 291 291 291 291 290 290 290 289 289 289 289 289 288 288 287 286 285 284 282 281 280
288 288 290 290 288 286 285 284 285 285 284 281 279 277 276 275 277 282 289 297 303 306 305 303 301 300 299 298 298 299 300 301 300 297 295 292 292 296 299 300 297 294 292 293 294 295 295 294 293 292 292 291 291 291 291 291 291 291 291 291 291 291 291 291 291 291 291 291 291 290 290 290 290 290 290 290 290 289 288 287 286 285 284 283 281 280
288 289 289 289 287 286 284 283 284 285 285 283 281 280 282 286 293 301 306 308 308 306 305 303 301 300 299 299 299 299 300 301 300 297 292 289 291 295 298 300 298 294 293 293 295 296 296 294 293 292 292 291 290 290 290 290 290 290 291 291 291 291 291 291 291 291 291 291 291 291 291 291 291 291 290 290 289 288 287 286 286 285 284 283 281 280
289 289 288 288 288 287 287 287 289 291 294 298 302 308 312 313 311 309 306 305 305 304 304 303 302 301 301 302 301 300 300 302 302 298 293 291 292 294 297 298 297 294 294 295 296 297 296 295 294 293 292 291 290 290 290 290 290 290 290 291 291 291 291 291 291 291 292 292 292 292 291 291 291 290 290 289 288 287 286 286 285 284 283 283 282 281
290 289 288 289 290 291 292 294 297 299 302 307 311 313 313 312 311 308 306 304 304 305 305 304 301 300 301 301 300 300 301 303 303 299 295 293 293 294 296 297 296 295 295 296 298 298 297 295 294 294 293 291 290 290 289 289 289 289 290 290 290 290 291 291 291 292 292 292 292 291 291 291 290 289 289 288 287 286 286 285 285 285 285 284 284 283
291 290 291 292 293 295 297 298 300 301 303 305 305 306 307 307 307 304 302 303 306 308 307 303 300 299 300 300 299 299 301 303 302 299 296 293 291 292 294 297 298 297 297 298 298 297 296 295 294 293 292 290 290 289 289 289 289 289 290 290 290 291 291 291 291 292 292 291 291 291 291 290 289 289 288 287 287 286 286 286 286 286 286 286 285 284
293 293 293 294 296 298 300 301 301 302 302 302 303 303 304 305 303 301 300 303 307 306 301 297 296 297 298 299 299 299 301 300 299 298 297 293 289 288 293 297 299 299 299 299 298 298 295 292 291 290 290 290 290 290 290 290 290 290 290 291 291 291 291 291 291 292 291 291 291 290 290 290 289 289 288 288 287 287 287 287 287 287 287 286 285 284
300 299 298 299 300 301 302 302 302 302 303 303 303 303 303 302 299 298 298 301 302 299 294 292 291 293 295 298 299 299 298 297 297 299 302 297 291 289 294 298 299 300 301 301 301 300 296 293 291 290 290 291 291 291 291 292 292 291 291 291 291 291 291 291 291 291 291 291 290 290 290 290 289 288 288 288 288 287 287 287 287 287 287 286 285 283
309 308 306 305 305 306 306 305 305 305 304 303 302 301 300 296 293 291 291 293 292 290 288 289 290 292 295 299 300 299 297 296 297 302 306 302 295 293 296 298 298 299 301 303 303 301 298 297 295 294 293 293 293 293 293 293 293 292 292 292 292 291 291 291 291 291 291 291 290 290 290 289 289 288 288 287 287 287 286 286 286 287 286 285 283 282
313 311 310 310 310 310 310 309 308 307 305 304 302 300 297 293 289 286 285 285 285 284 285 287 289 291 293 296 298 297 293 295 297 302 305 300 294 293 296 296 296 297 298 299 299 299 300 301 300 298 296 296 295 294 294 294 293 293 293 292 292 292 291 291 291 292 291 291 290 290 289 289 288 288 287 287 286 286 286 286 286 285 284 283 282 280
314 313 313 313 313 313 312 310 309 307 307 305 303 301 297 293 290 287 285 284 283 283 284 285 287 288 288 287 284 281 285 290 294 298 301 296 292 292 294 293 294 295 295 293 290 287 295 298 300 300 299 297 295 294 294 293 293 293 293 293 292 292 292 292 292 292 291 291 290 290 289 289 288 287 286 286 285 285 285 284 284 283 283 281 280 278
316 315 315 314 314 312 310 308 308 307 307 305 304 302 299 296 293 290 288 285 284 283 283 283 284 285 285 283 281 280 282 286 291 295 297 294 291 291 292 292 292 293 294 293 289 285 284 286 293 297 297 296 294 293 293 293 292 292 292 292 291 291 292 292 292 292 291 291 290 290 289 288 287 286 285 285 284 283 283 283 283 281 280 279 277 276
318 317 315 314 312 311 309 308 307 307 306 305 304 302 300 298 295 293 291 288 286 284 281 279 280 282 283 283 282 282 282 285 289 293 296 293 290 289 291 291 291 292 293 293 292 289 286 286 289 293 296 296 295 294 293 293 292 292 291 290 290 290 291 292 292 291 290 290 289 289 288 287 287 286 285 284 283 283 282 281 281 280 277 276 275 274
318 316 313 312 311 310 310 309 308 307 307 305 304 303 301 299 297 295 293 291 289 286 283 280 278 278 279 280 282 283 284 286 290 293 294 290 288 288 289 289 289 291 291 291 292 291 289 288 289 291 294 296 296 295 294 293 293 293 292 291 290 289 290 290 290 290 290 289 288 287 286 286 286 286 285 284 283 282 282 281 281 280 278 276 275 274
315 312 311 311 311 310 310 310 309 309 308 307 305 304 303 301 300 298 296 293 292 289 287 283 279 277 277 276 276 278 281 286 289 291 290 288 286 286 287 287 287 288 288 288 289 289 289 290 290 291 292 293 295 296 296 296 295 294 293 292 291 290 289 289 289 288 288 287 286 286 285 285 285 284 284 283 283 282 283 282 281 280 279 278 276 275
311 310 310 311 310 310 309 309 310 310 309 308 307 306 305 303 302 300 298 296 293 292 290 287 283 280 277 275 275 276 278 283 286 287 287 285 284 283 283 284 284 285 284 284 286 287 288 290 291 292 291 290 291 294 297 299 298 296 294 293 292 291 290 289 288 287 286 285 284 284 284 284 284 283 283 283 282 282 282 280 280 279 278 277 276 275
309 309 309 311 311 310 310 310 310 309 309 308 307 306 305 304 302 301 299 297 295 294 293 291 287 284 283 280 278 279 280 282 283 285 285 284 282 281 279 280 282 282 280 280 281 284 285 287 289 291 291 290 290 292 294 297 297 296 294 293 292 291 290 289 288 287 285 284 283 283 283 283 283 282 282 282 281 281 280 279 278 278 278 278 276 274
308 308 309 310 310 310 310 309 309 308 307 306 306 305 305 303 303 302 300 299 297 296 294 292 290 288 288 286 285 283 283 283 284 285 285 285 283 281 279 278 280 281 280 279 278 279 280 281 283 285 288 291 292 292 293 293 293 293 294 295 294 292 290 289 288 287 286 284 284 284 283 283 282 281 281 280 280 279 278 278 278 278 278 277 276 276
309 309 309 310 309 309 308 307 307 307 306 306 305 305 305 304 304 304 303 302 300 299 297 295 294 292 291 290 288 287 286 286 286 287 287 286 285 283 280 278 278 279 279 279 278 276 275 277 279 281 283 286 288 291 291 291 291 291 293 294 293 292 291 291 290 288 286 284 283 282 282 283 282 281 280 279 278 277 275 276 277 278 278 275 274 275
310 309 309 309 309 309 307 306 306 306 306 306 306 306 306 306 306 306 306 305 304 303 302 301 299 297 296 294 292 291 290 290 290 290 290 289 289 287 284 280 278 278 278 278 277 276 274 275 277 279 281 282 284 286 287 288 289 289 290 289 288 289 290 290 289 287 286 284 283 282 282 282 282 281 280 279 278 277 275 275 275 276 276 274 271 270
310 308 308 309 309 308 307 307 307 307 307 307 306 306 306 306 306 306 306 305 304 304 304 303 302 300 299 298 297 296 294 293 293 293 293 293 292 290 287 284 281 278 277 277 277 277 275 276 276 277 279 281 283 285 286 287 288 288 287 286 286 289 291 290 288 287 286 284 284 283 282 281 281 281 280 279 278 278 277 276 275 274 274 272 270 268
308 307 307 308 307 307 307 308 309 309 309 308 307 306 306 306 306 305 304 302 302 303 303 302 301 300 299 299 299 300 299 297 297 296 295 294 293 291 289 287 284 281 279 277 277 277 277 277 276 276 277 279 280 281 284 286 287 287 286 285 285 287 289 289 289 289 287 286 285 284 282 281 280 280 280 279 279 278 277 276 276 275 271 270 268 267
307 307 307 307 308 309 310 310 310 310 309 308 307 306 306 306 305 304 302 301 301 302 302 302 301 300 298 298 299 301 302 302 301 299 296 295 294 293 291 289 287 284 280 275 274 277 280 280 279 278 278 278 278 279 281 283 285 285 285 284 283 282 280 283 287 289 289 287 285 283 281 280 280 281 281 280 279 278 277 275 273 272 269 268 267 266
307 307 308 309 310 310 310 310 310 310 308 307 306 305 306 307 306 304 303 300 300 301 301 301 301 300 299 299 301 303 304 304 304 302 301 300 299 297 294 291 289 286 282 277 274 273 275 278 280 281 281 279 277 276 277 279 282 283 284 284 283 281 279 281 283 285 285 285 284 283 282 281 281 281 280 280 279 278 276 274 272 271 270 269 267 265
309 309 310 310 310 309 309 309 309 309 307 306 305 306 307 307 306 305 303 301 300 300 300 300 299 298 297 298 300 302 304 305 305 305 305 304 302 300 297 294 291 288 284 280 277 275 273 273 276 280 281 281 279 277 276 277 279 281 282 283 283 283 283 283 283 283 283 283 283 283 283 282 280 279 277 278 278 279 278 276 274 272 272 270 268 266
310 310 309 309 309 309 308 309 309 309 307 306 306 306 307 307 307 306 304 302 300 299 300 300 298 295 294 295 297 299 300 302 304 305 305 305 305 304 302 299 296 292 288 284 280 278 276 273 273 274 276 278 279 279 279 279 278 278 279 281 283 283 283 283 284 284 284 283 282 282 282 281 280 279 278 279 281 282 281 280 277 275 273 272 270 268
310 309 308 308 308 308 308 309 309 308 307 306 306 306 307 307 306 305 304 303 302 300 300 300 298 295 294 295 295 296 297 298 299 301 303 304 305 305 304 303 301 298 294 290 286 282 278 276 274 272 270 271 273 276 278 279 278 277 278 280 281 281 281 282 284 284 284 282 281 280 280 280 278 279 281 283 284 284 284 282 280 277 274 272 270 269
308 307 306 306 306 306 307 308 308 307 306 305 306 306 307 307 306 305 303 303 302 300 298 297 296 295 295 295 296 296 297 297 297 298 300 302 303 304 304 304 304 303 301 297 293 289 286 284 280 275 269 265 265 268 272 275 276 277 278 279 279 279 279 281 284 285 285 284 282 282 281 279 278 280 282 284 284 285 285 284 282 279 276 273 270 269
307 306 305 305 305 305 306 307 307 306 304 304 305 306 306 308 307 306 304 303 301 299 297 295 295 294 295 295 296 297 298 297 298 298 299 301 302 303 302 303 304 304 303 301 299 297 295 293 289 285 278 269 264 263 266 271 275 277 279 279 279 279 280 281 284 285 286 285 285 284 284 283 281 281 282 281 282 283 284 283 282 280 278 274 271 269
307 306 306 306 305 305 306 306 306 304 303 303 304 305 306 307 307 307 306 304 302 300 298 296 294 294 294 295 296 297 298 297 297 297 298 300 301 301 300 301 301 301 301 300 300 299 299 298 296 294 291 284 274 267 265 269 274 277 280 280 280 281 282 282 284 285 286 286 286 286 286 285 283 282 279 278 279 281 283 283 283 282 280 278 274 271